Weather History for KLVS - January, 2013

Change the Weather History Date:

Monday, January 14, 2013

  Actual Average Record
Temperature  
Mean Temperature 6 °F -  
Max Temperature 12 °F 46 °F 63 °F (1980)
Min Temperature 0 °F 19 °F -2 °F (1963)
Degree Days  
Heating Degree Days 59    
Moisture  
Dew Point 7 °F    
Average Humidity 90    
Maximum Humidity 100    
Minimum Humidity 84    
Precipitation  
Precipitation 0.00 in - - ()
Sea Level Pressure  
Sea Level Pressure 30.00 in    
Wind  
Wind Speed 10 mph (SSE)    
Max Wind Speed 16 mph    
Max Gust Speed -    
Visibility 3 miles    
Events Fog , Snow    
Averages and records for this station are not official NWS values.
T = Trace of Precipitation, MM = Missing Value Source: NWS Daily Summary

Daily Weather History Graph

Daily Weather History Graph

Search for Another Location

Airport or City:

Trip Planner

Search our weather history database for the weather conditions in past years. The results will help you decide how hot, cold, wet, or windy it might be!

Date:

Astronomy

Jan. 14, 2013 Rise Set
Actual Time 7:09 AM MST 5:10 PM MST
Civil Twilight 6:42 AM MST 5:37 PM MST
Nautical Twilight 6:10 AM MST 6:09 PM MST
Astronomical Twilight 5:39 AM MST 6:39 PM MST
Moon 8:53 AM MST (1/14) 8:49 PM MST (1/14)
Length of Visible Light 10h 55m
Length of Day
10h 00m
Waxing Crescent, 12% of the Moon is Illuminated
Jan 14
Waxing Crescent
Jan 18
First Quarter
Jan 26
Full
Feb 3
Last Quarter
Feb 10
New

Hourly Weather History & Observations

Time (MST) Temp. Windchill Dew Point Humidity Pressure Visibility Wind Dir Wind Speed Gust Speed Precip Events Conditions
12:11 AM 12.2 °F -2.5 °F 10.4 °F 92% 29.95 in 5.0 mi SSE 12.7 mph - 0.00 in Snow Light Snow
12:48 AM 12.2 °F -0.2 °F 10.4 °F 92% 29.94 in 1.8 mi SSE 9.2 mph - 0.00 in Snow Light Snow
12:53 AM 12.9 °F 0.7 °F 10.9 °F 92% 30.03 in 1.8 mi SSE 9.2 mph - 0.00 in Snow Light Snow
1:01 AM 12.2 °F 0.7 °F 10.4 °F 92% 29.94 in 1.5 mi South 8.1 mph - 0.00 in Snow Light Snow
1:53 AM 12.9 °F -0.9 °F 10.9 °F 92% 30.04 in 1.5 mi South 11.5 mph - 0.00 in Snow Light Snow
2:01 AM 12.2 °F -1.0 °F 10.4 °F 92% 29.95 in 1.5 mi South 10.4 mph - 0.00 in Snow Light Snow
2:23 AM 12.2 °F -0.2 °F 10.4 °F 92% 29.95 in 1.5 mi South 9.2 mph - 0.00 in Snow Light Snow
2:53 AM 12.0 °F -3.4 °F 10.0 °F 92% 30.06 in 1.5 mi South 13.8 mph - 0.00 in Snow Light Snow
3:01 AM 12.2 °F -3.1 °F 10.4 °F 92% 29.96 in 1.2 mi South 13.8 mph - 0.00 in Snow Light Snow
3:53 AM 12.0 °F -2.0 °F 10.0 °F 92% 30.06 in 1.5 mi South 11.5 mph - 0.00 in Snow Light Snow
4:18 AM 12.2 °F -1.8 °F 10.4 °F 92% 29.94 in 0.8 mi South 11.5 mph - 0.00 in Snow Light Snow
4:39 AM 12.2 °F -2.5 °F 10.4 °F 92% 29.94 in 1.0 mi SSE 12.7 mph - 0.00 in Snow Light Snow
4:53 AM 12.0 °F -3.4 °F 9.0 °F 88% 30.06 in 1.5 mi SSE 13.8 mph - 0.00 in Snow Light Snow
5:41 AM 10.4 °F -4.1 °F 8.6 °F 92% 29.95 in 1.8 mi South 11.5 mph - 0.00 in Snow Light Snow
5:48 AM 10.4 °F -2.4 °F 8.6 °F 92% 29.95 in 2.5 mi South 9.2 mph - 0.00 in Snow Light Snow
5:50 AM 10.4 °F -2.4 °F 8.6 °F 92% 29.95 in 3.0 mi South 9.2 mph - 0.00 in Snow Light Snow
5:53 AM 10.9 °F -1.8 °F 9.0 °F 92% 30.10 in 3.0 mi South 9.2 mph - 0.00 in Snow Light Snow
6:53 AM 10.9 °F -1.8 °F 9.0 °F 92% 30.11 in 2.0 mi SSE 9.2 mph - 0.00 in Snow Light Snow
7:23 AM 10.4 °F -0.4 °F 8.6 °F 92% 29.97 in 1.2 mi SSE 6.9 mph - 0.00 in Snow Light Snow
7:31 AM 10.4 °F -0.4 °F 8.6 °F 92% 29.97 in 0.8 mi SSE 6.9 mph - 0.00 in Snow Light Snow
7:39 AM 10.4 °F -0.4 °F 8.6 °F 92% 29.97 in 0.5 mi SSE 6.9 mph - 0.00 in Fog , Snow Snow
7:46 AM 10.4 °F -0.4 °F 8.6 °F 92% 29.98 in 0.8 mi SSE 6.9 mph - 0.00 in Snow Light Snow
7:53 AM 10.9 °F 1.4 °F 9.0 °F 92% 30.13 in 0.8 mi South 5.8 mph - 0.00 in Snow Light Snow
8:22 AM 10.4 °F -1.5 °F 8.6 °F 92% 29.98 in 1.0 mi SSE 8.1 mph - 0.00 in Snow Light Snow
8:53 AM 12.0 °F -0.4 °F 9.0 °F 88% 30.14 in 1.0 mi SSE 9.2 mph - 0.00 in Snow Light Snow
9:05 AM 10.4 °F -3.3 °F 8.6 °F 92% 29.98 in 0.8 mi SSE 10.4 mph - 0.00 in Snow Light Snow
9:14 AM 12.2 °F -1.0 °F 8.6 °F 85% 29.98 in 0.8 mi SSE 10.4 mph - 0.00 in Snow Light Snow
9:53 AM 12.0 °F -2.0 °F 9.0 °F 88% 30.14 in 0.5 mi SSE 11.5 mph - 0.00 in Fog , Snow Light Snow
10:53 AM 12.0 °F -2.7 °F 8.1 °F 84% 30.13 in 0.5 mi SSE 12.7 mph - 0.00 in Fog , Snow Light Snow
11:04 AM 12.2 °F -1.0 °F 8.6 °F 85% 29.96 in 0.8 mi SSE 10.4 mph - 0.00 in Snow Light Snow
11:22 AM 12.2 °F -1.8 °F 8.6 °F 85% 29.94 in 1.5 mi SSE 11.5 mph - 0.00 in Snow Light Snow
11:40 AM 12.2 °F -1.8 °F 8.6 °F 85% 29.93 in 1.5 mi SSE 11.5 mph - 0.00 in Snow Light Snow
11:53 AM 12.0 °F -2.7 °F 9.0 °F 88% 30.09 in 1.0 mi SSE 12.7 mph - 0.00 in Snow Light Snow
12:26 PM 12.2 °F -2.5 °F 8.6 °F 85% 29.91 in 0.8 mi SSE 12.7 mph - 0.00 in Snow Light Snow
12:36 PM 12.2 °F -2.5 °F 8.6 °F 85% 29.90 in 0.5 mi SSE 12.7 mph - 0.00 in Fog , Snow Light Snow
12:53 PM 12.0 °F -2.0 °F 9.0 °F 88% 30.04 in 0.5 mi SSE 11.5 mph - 0.00 in Fog , Snow Light Snow
1:42 PM 12.2 °F -1.0 °F 8.6 °F 85% 29.89 in 1.0 mi SSE 10.4 mph - 0.00 in Snow Light Snow
1:51 PM 12.2 °F -1.8 °F 8.6 °F 85% 29.89 in 2.5 mi SSE 11.5 mph - 0.00 in Snow Light Snow
1:53 PM 12.0 °F -1.3 °F 8.1 °F 84% 30.04 in 2.5 mi SSE 10.4 mph - 0.00 in Snow Light Snow
2:02 PM 12.2 °F -1.8 °F 8.6 °F 85% 29.89 in 1.8 mi SSE 11.5 mph - 0.00 in Snow Light Snow
2:09 PM 12.2 °F -1.0 °F 10.4 °F 92% 29.89 in 2.0 mi SSE 10.4 mph - 0.00 in Snow Light Snow
2:43 PM 12.2 °F -3.1 °F 8.6 °F 85% 29.90 in 1.2 mi South 13.8 mph - 0.00 in Snow Light Snow
3:08 PM 12.2 °F -3.7 °F 8.6 °F 85% 29.91 in 1.5 mi SSE 15.0 mph - 0.00 in Snow Light Snow
3:23 PM 12.2 °F -4.3 °F 8.6 °F 85% 29.91 in 1.0 mi SSE 16.1 mph - 0.00 in Snow Light Snow
3:53 PM 10.9 °F -4.7 °F 8.1 °F 88% 30.08 in 1.5 mi SSE 13.8 mph - 0.00 in Snow Light Snow
4:04 PM 10.4 °F -4.8 °F 8.6 °F 92% 29.92 in 2.5 mi SSE 12.7 mph - 0.00 in Snow Light Snow
4:11 PM 10.4 °F -4.8 °F 6.8 °F 85% 29.93 in 8.0 mi SSE 12.7 mph - 0.00 in   Mostly Cloudy
4:25 PM 8.6 °F -7.0 °F 6.8 °F 92% 29.93 in 10.0 mi SSE 12.7 mph - 0.00 in   Scattered Clouds
4:35 PM 8.6 °F -6.3 °F 6.8 °F 92% 29.93 in 5.0 mi SSE 11.5 mph - 0.00 in   Mostly Cloudy
4:45 PM 6.8 °F -8.6 °F 3.2 °F 85% 29.94 in 9.0 mi South 11.5 mph - 0.00 in   Scattered Clouds
4:53 PM 6.1 °F -10.2 °F 3.9 °F 91% 30.13 in 10.0 mi South 12.7 mph - 0.00 in   Scattered Clouds
5:14 PM 1.4 °F -14.5 °F -0.4 °F 92% 29.94 in 6.0 mi SSE 10.4 mph - 0.00 in Snow Light Snow
5:19 PM 1.4 °F -13.5 °F -0.4 °F 92% 29.95 in 3.0 mi South 9.2 mph - 0.00 in Snow Light Snow
5:26 PM -0.4 °F -15.7 °F -0.4 °F 100% 29.95 in 2.5 mi SSE 9.2 mph - 0.00 in Snow Light Snow
5:34 PM 1.4 °F -13.5 °F -0.4 °F 92% 29.95 in 6.0 mi SSE 9.2 mph - 0.00 in Snow Light Snow
5:53 PM -0.0 °F -16.3 °F -0.9 °F 96% 30.18 in 8.0 mi SSE 10.4 mph - 0.00 in   Mostly Cloudy
6:04 PM -0.4 °F -15.7 °F -2.2 °F 92% 29.96 in 9.0 mi SSE 9.2 mph - N/A   Scattered Clouds
6:14 PM -0.4 °F -14.7 °F -2.2 °F 92% 29.96 in 1.8 mi SSE 8.1 mph - N/A   Partly Cloudy
6:24 PM 1.4 °F -11.3 °F -0.4 °F 92% 29.97 in 0.2 mi SSE 6.9 mph - N/A Fog Light Freezing Fog
6:37 PM 1.4 °F -8.3 °F -0.4 °F 92% 29.97 in 0.2 mi SSE 4.6 mph - N/A Fog Light Freezing Fog
6:49 PM 1.4 °F -6.2 °F -0.4 °F 92% 29.97 in 0.2 mi South 3.5 mph - N/A Fog Light Freezing Fog
6:53 PM 1.9 °F - -0.0 °F 91% 30.19 in 0.2 mi Calm Calm - N/A Fog Light Freezing Fog
7:00 PM 3.2 °F -4.2 °F 1.4 °F 92% 29.97 in 0.5 mi SSW 3.5 mph - N/A Fog Light Freezing Fog
7:13 PM 6.8 °F -0.1 °F 6.8 °F 100% 29.97 in 1.2 mi SSW 3.5 mph - N/A   Overcast
7:30 PM 8.6 °F 2.0 °F 6.8 °F 92% 29.97 in 2.5 mi South 3.5 mph - 0.00 in Snow Light Snow
7:42 PM 8.6 °F 2.0 °F 6.8 °F 92% 29.98 in 3.0 mi South 3.5 mph - 0.00 in Snow Light Snow
7:53 PM 9.0 °F 0.6 °F 8.1 °F 96% 30.16 in 1.8 mi South 4.6 mph - 0.00 in Snow Light Snow
7:57 PM 10.4 °F 4.0 °F 8.6 °F 92% 29.98 in 1.8 mi South 3.5 mph - 0.00 in Snow Light Snow
8:04 PM 10.4 °F 2.2 °F 8.6 °F 92% 29.98 in 3.0 mi SSW 4.6 mph - 0.00 in Snow Light Snow
8:53 PM 9.0 °F -0.9 °F 6.1 °F 88% 30.15 in 9.0 mi South 5.8 mph - 0.00 in   Overcast
9:53 PM 10.0 °F 1.8 °F 8.1 °F 92% 30.14 in 7.0 mi SW 4.6 mph - 0.00 in Snow Light Snow
10:53 PM 10.0 °F 3.6 °F 7.0 °F 87% 30.14 in 6.0 mi West 3.5 mph - 0.00 in Snow Light Snow
11:53 PM 8.1 °F - 5.0 °F 87% 30.14 in 5.0 mi Calm Calm - 0.00 in Snow Light Snow